OpenBCM V1.13 (Linux)

Packet Radio Mailbox

DB0FHN

[JN59NK Nuernberg]

 Login: GUEST





  
LU9DCE > KEP      21.11.19 19:00l 244 Lines 12033 Bytes #999 (0) @ WW
BID : 2855_LU9DCE
Read: DF7EAV DJ6UX GUEST
Subj: TLE 21 11
Path: DB0FHN<OE2XZR<OE1XAB<HG8LXL<XE1FH<N3HYM<N7HPX<LU9DCE
Sent: 191121/1605Z 2855@LU9DCE.TOR.BA.ARG.SOAM LinBPQ6.0.19

            __    _  _  ___  ____   ___  ____    ____  ____  ____
           (  )  / )( \/ _ \(    \ / __)(  __)  (  _ \(  _ \/ ___)
           / (_/\) \/ (\__  )) D (( (__  ) _)    ) _ ( ) _ (\___ \
           \____/\____/(___/(____/ \___)(____)  (____/(____/(____/
               ESTACION DE PACKET RADIO - BUENOS AIRES (GF05OM)
                   BOLETINES INFORMATIVOS PROGRAMADOS (BIP)
                  SLACKWARE LINUX - HELLOCODELINUX@GMAIL.COM
+----------------------------------------------------------------------------+
OSCAR 7
1  7530U 74089B   19324.77307010 -.00000026 +00000-0 +12135-3 0  9991
2  7530 101.7682 290.9641 0012510 048.3019 069.8913 12.53640823059719
OSCAR 11 (UoSAT 2)
1 14781U 84021B   19325.14561119  .00000076  00000-0  15367-4 0  9993
2 14781  97.6014 342.4299 0008940 159.7914 200.3656 14.83121577921801
OSCAR 19 (LUSAT)
1 20442U 90005G   19324.82444075 -.00000000  00000-0  16298-4 0  9990
2 20442  98.6657 266.6710 0012722  55.2409 304.9970 14.32938325558596
EYESAT A
1 22825U 93061C   19325.03525091  .00000011  00000-0  22140-4 0  9998
2 22825  98.9156 317.3118 0007378 266.6471  93.3866 14.30071585364158
ITAMSAT
1 22826U 93061D   19325.21054781  .00000010  00000-0  21974-4 0  9995
2 22826  98.9097 317.4634 0007935 253.1495 106.8817 14.30405911364388
RADIO ROSTO
1 23439U 94085A   19324.81301127 -.00000034 +00000-0 +24550-3 0  9996
2 23439 064.8159 225.2712 0145538 082.8489 278.8956 11.27568700025382
JAS 2
1 24278U 96046B   19324.83254322 -.00000043 +00000-0 -75556-5 0  9998
2 24278 098.5611 097.3754 0350126 197.7028 161.1655 13.53094848148532
TECHSAT 1B
1 25397U 98043D   19325.29135534 -.00000010  00000-0  15108-4 0  9993
2 25397  98.7045 263.6444 0000833   4.0276 356.0909 14.23674630110014
ISS (ZARYA)
1 25544U 98067A   19325.45514289  .00000314  00000-0  13519-4 0  9999
2 25544  51.6463 301.5620 0006288 306.4799 195.7838 15.50019269199655
PCSAT
1 26931U 01043C   19324.43000755 -.00000010  00000-0  28000-4 0  9998
2 26931  67.0508 324.3763 0007429 265.3839  94.6414 14.30559154947101
SAUDISAT 1C
1 27607U 02058C   19325.22363176 -.00000028  00000-0  16912-4 0  9991
2 27607  64.5548 294.0712 0071991 226.1009 133.4136 14.75589945909981
CUTE-1
1 27844U 03031E   19324.50144850 +.00000055 +00000-0 +44642-4 0  9992
2 27844 098.6844 330.4032 0008975 306.9384 053.0971 14.22206286850251
CUBESAT XI 4
1 27848U 03031J   19324.46743959 +.00000043 +00000-0 +39272-4 0  9996
2 27848 098.6917 330.8999 0009005 320.1000 039.9515 14.21797721850109
MOZHAYETS 4
1 27939U 03042A   19325.37695044  .00000141  00000-0  33818-4 0  9990
2 27939  98.0627  98.3700 0011751 297.4288  62.5730 14.66819220863364
CUBESAT XI 5
1 28895U 05043F   19324.82569876 +.00000153 +00000-0 +38235-4 0  9998
2 28895 097.9812 102.4524 0016047 218.4792 141.5268 14.63712540749942
CUTE-1.7+APD II
1 32785U 08021C   19325.25702165  .00000261  00000-0  33685-4 0  9992
2 32785  97.5583 317.7058 0014539 105.3838 254.8987 14.88376857626829
DELFI C3
1 32789U 08021G   19324.91543193 +.00000925 +00000-0 +65285-4 0  9990
2 32789 097.4467 009.7682 0010931 319.6238 040.4177 15.07267826630248
SEEDS
1 32791U 08021J   19325.01254615  .00000473  00000-0  53248-4 0  9997
2 32791  97.5323 323.5741 0014854  81.4363 278.8538 14.90914244627256
YUBELEINY
1 32953U 08025A   19325.30037795  .00000021  00000-0  75656-4 0  9997
2 32953  82.5071  47.9864 0020126 148.6552 211.5739 12.43092285521649
PRISM (HITOMI)
1 33493U 09002B   19325.23103822  .00000786  00000-0  74081-4 0  9999
2 33493  98.1273 252.1078 0016114  33.0885 327.1340 14.96814275588412
KKS-1 (KISEKI)
1 33499U 09002H   19325.24496494  .00000118  00000-0  25314-4 0  9990
2 33499  98.3360 168.8319 0010349  73.5841 286.6504 14.75480872582169
SWISSCUBE
1 35932U 09051B   19325.01225525  .00000142  00000-0  43090-4 0  9996
2 35932  98.5995 135.6775 0008435  54.6013 305.5971 14.56331298539382
BEESAT
1 35933U 09051C   19325.14341553  .00000113  00000-0  36461-4 0  9993
2 35933  98.6009 137.6324 0006790  66.6701 293.5209 14.56414511539516
ITUPSAT 1
1 35935U 09051E   19325.15353966  .00000127  00000-0  40280-4 0  9996
2 35935  98.6118 137.8679 0009073  63.8074 296.4055 14.55568526539250
XIWANG-1 (HOPE-1)
1 36122U 09072B   19325.46919193 -.00000049  00000-0 -16970-4 0  9996
2 36122 100.0803 320.5655 0007511 350.9529   9.1452 13.16352089477378
TISAT 1
1 36799U 10035E   19325.02651069  .00000224  00000-0  28671-4 0  9998
2 36799  98.1737 122.5356 0011093 299.4960  60.5150 14.91206836507917
JUGNU
1 37839U 11058B   19324.71995253 +.00000305 +00000-0 +20759-4 0  9990
2 37839 019.9604 114.6532 0018916 236.3088 239.5829 14.12664588419094
SRMSAT
1 37841U 11058D   19324.92350973 +.00000296 +00000-0 +17693-4 0  9992
2 37841 019.9701 173.4116 0011897 101.9613 026.6853 14.10643650418544
M-CUBED/EXP-1 PRIME
1 37855U 11061F   19324.77477366 +.00001827 +00000-0 +98183-4 0  9994
2 37855 101.7225 300.0419 0172545 337.0291 022.3269 15.05799406439640
HORYU 2
1 38340U 12025D   19325.11569569  .00000176  00000-0  33744-4 0  9999
2 38340  98.3116   8.2278 0011201 355.3639   4.7464 14.75776807404087
STRAND 1
1 39090U 13009E   19325.26590567  .00000031  00000-0  25850-4 0  9992
2 39090  98.4714 168.5070 0009043 179.9432 180.1756 14.35105915352703
SOMP
1 39134U 13015E   19324.86594514 +.00001331 +00000-0 +68990-4 0  9995
2 39134 064.8632 237.5831 0038004 277.6013 082.0799 15.20514461363805
BEESAT 3
1 39135U 13015F   19325.26386270  .00001008  00000-0  58757-4 0  9990
2 39135  64.8670 256.8022 0040594 282.3353  77.3230 15.17743274363855
BEESAT 2
1 39136U 13015G   19324.83299375 +.00001138 +00000-0 +66475-4 0  9992
2 39136 064.8689 262.4710 0030352 287.6018 072.1794 15.17157611363313
CUBEBUG 1
1 39153U 13018D   19325.26854870  .00000204  00000-0  33445-4 0  9993
2 39153  97.9820  62.5507 0017995  57.3573 302.9373 14.80627017354830
ZACUBE
1 39417U 13066B   19325.01822118  .00000208  00000-0  32543-4 0  9994
2 39417  97.5617 329.7863 0057581 244.0886 115.4386 14.81180521324038
TRITON 1
1 39427U 13066M   19325.14917481  .00000247  00000-0  47114-4 0  9990
2 39427  97.6971 293.0884 0114511  28.4123 332.3262 14.67908352321140
GOMX 1
1 39430U 13066Q   19325.40979044  .00000178  00000-0  40793-4 0  9995
2 39430  97.7661 271.8558 0152020 122.9514 238.6416 14.59310668319317
HUMSAT D
1 39433U 13066T   19324.91306841 +.00000333 +00000-0 +37616-4 0  9995
2 39433 097.5355 005.9275 0031799 140.6942 219.6594 14.92305003325048
CUBEBUG 2
1 39440U 13066AA  19325.21065446  .00000234  00000-0  39674-4 0  9996
2 39440  97.6127 314.5487 0078947 300.3497  58.9923 14.75919296322913
FUNCUBE 1
1 39444U 13066AE  19324.72989167 +.00000269 +00000-0 +39399-4 0  9992
2 39444 097.5583 331.6017 0056762 238.0758 121.4928 14.82012721322308
UWE-3
1 39446U 13066AG  19324.94843557 +.00000223 +00000-0 +36396-4 0  9994
2 39446 097.5865 321.4627 0068507 273.5494 085.7884 14.78453306321617
SPROUT
1 39770U 14029E   19325.29907229  .00000558  00000-0  67602-4 0  9995
2 39770  97.8920  67.6509 0007865 299.4015  60.6395 14.87509157297961
UNISAT 6
1 40012U 14033C   19325.19724986  .00000151  00000-0  29900-4 0  9995
2 40012  97.7338 184.9262 0057442 317.1596  42.5144 14.74034549291599
DUCHIFAT 1
1 40021U 14033M   19324.87107224 +.00000510 +00000-0 +57807-4 0  9995
2 40021 097.9293 250.0027 0011484 258.2573 101.7357 14.90740802294660
QB50P1
1 40025U 14033R   19325.00270849  .00000301  00000-0  38002-4 0  9993
2 40025  97.9074 244.4281 0011023 269.2165  90.7789 14.89023199294430
CHUBUSAT 1
1 40300U 14070C   19325.26278809  .00000560  00000-0  27259-4 0  9991
2 40300  97.3130  35.4032 0018727 227.2153 221.4513 15.22255476279685
NUDT-PHONESAT
1 40900U 15049B   19325.30846065  .00001868  00000-0  81631-4 0  9990
2 40900  97.4365 333.1560 0012808   6.5070 182.5718 15.23295095231343
ZDPS 2A
1 40901U 15049C   19325.32912278  .00000853  00000-0  45287-4 0  9993
2 40901  97.4616 328.9366 0014291  27.2572  68.5479 15.17938132230844
ZDPS 2B
1 40902U 15049D   19325.37219372  .00000908  00000-0  48142-4 0  9998
2 40902  97.4583 326.3524 0014103  24.8758  82.3220 15.17826531230822
XW-2A
1 40903U 15049E   19325.38135741  .00001540  00000-0  37666-4 0  9999
2 40903  97.3191   8.8996 0012186 307.5406 116.1622 15.42335308234249
KAITUO 1A
1 40904U 15049F   19325.36904936  .00000188  00000-0  13399-4 0  9992
2 40904  97.4719 324.7642 0015584  33.4687  73.7403 15.15507978230577
OBJECT G
1 40905U 15049G   19325.36278345  .00000068  00000-0  72597-5 0  9994
2 40905  97.4774 322.1492 0016568  28.8275  78.3551 15.14392140230430
XW-2C
1 40906U 15049H   19325.40876260  .00000733  00000-0  41754-4 0  9999
2 40906  97.4727 324.9607 0015566  25.2280 110.8398 15.15830512230589
XW-2D
1 40907U 15049J   19325.36119843  .00000448  00000-0  26742-4 0  9995
2 40907  97.4706 324.5973 0014829  22.5329  84.4586 15.16030101230597
LILACSAT 2
1 40908U 15049K   19325.31593846  .00000496  00000-0  30952-4 0  9991
2 40908  97.4847 323.1948 0016719  29.7842  22.1743 15.13896529230359
XW-2F
1 40910U 15049M   19325.24288610  .00000761  00000-0  41191-4 0  9998
2 40910  97.4660 326.7234 0015011  14.9707 114.1365 15.17542946230607
XW-2B
1 40911U 15049N   19325.32607736  .00000803  00000-0  45252-4 0  9991
2 40911  97.4726 325.2380 0014839  23.6500  34.0825 15.15961679230485
KAITUO 1B
1 40912U 15049P   19325.23364852  .00000977  00000-0  48651-4 0  9999
2 40912  97.4503 330.6004 0014844 356.0097 132.7525 15.19887196230930
TIANWANG 1C (TW-1C)
1 40926U 15051B   19325.09613970  .00012267  00000-0  15862-3 0  9991
2 40926  97.1168  11.2112 0008414 142.6972 271.5568 15.59031121234349
